Glasgow, United Kingdom

5:39 AM BST on September 21, 2017 (GMT +0100)
Glasgow

Weather History for EGPF - October, 2012

Change the Weather History Date:

Wednesday, October 24, 2012

  Actual Average Record
Temperature  
Mean Temperature 46 °F -  
Max Temperature 53 °F 48 °F 60 °F (1996)
Min Temperature 39 °F 38 °F 26 °F (2010)
Degree Days  
Heating Degree Days 19    
Moisture  
Dew Point 45 °F    
Average Humidity 88    
Maximum Humidity 100    
Minimum Humidity 71    
Precipitation  
Precipitation 0.00 in - - ()
Sea Level Pressure  
Sea Level Pressure 30.31 in    
Wind  
Wind Speed 6 mph ()    
Max Wind Speed 12 mph    
Max Gust Speed -    
Visibility 5.8 miles    
Events Rain    
Averages and records for this station are not official NWS values.
T = Trace of Precipitation, MM = Missing Value Source: Averaged Metar Reports

Daily Weather History Graph

Daily Weather History Graph

Search for Another Location

Airport or City:

Trip Planner

Search our weather history database for the weather conditions in past years. The results will help you decide how hot, cold, wet, or windy it might be!

Date:

Astronomy

Oct. 24, 2012 Rise Set
Actual Time 8:08 AM BST 5:54 PM BST
Civil Twilight 7:29 AM BST 6:33 PM BST
Nautical Twilight 6:46 AM BST 7:16 PM BST
Astronomical Twilight 6:03 AM BST 7:59 PM BST
Moon 3:49 PM BST (10/24) 1:55 AM BST (10/24)
Length of Visible Light 11h 03m
Length of Day
9h 46m
Waxing Gibbous, 74% of the Moon is Illuminated
Oct 24
Waxing Gibbous
Oct 29
Full
Nov 7
Last Quarter
Nov 13
New
Nov 20
First Quarter

Hourly Weather History & Observations

Time (BST) Temp. Windchill Dew Point Humidity Pressure Visibility Wind Dir Wind Speed Gust Speed Precip Events Conditions
12:20 AM 51.8 °F - 50.0 °F 94% 30.39 in 6.2 mi ENE 6.9 mph - N/A   Mostly Cloudy
12:50 AM 51.8 °F - 50.0 °F 94% 30.39 in 6.2 mi East 5.8 mph - N/A   Mostly Cloudy
1:20 AM 51.8 °F - 50.0 °F 94% 30.39 in 6.2 mi ENE 5.8 mph - N/A   Mostly Cloudy
1:50 AM 51.8 °F - 50.0 °F 94% 30.39 in 6.2 mi East 4.6 mph - N/A   Mostly Cloudy
2:20 AM 51.8 °F - 50.0 °F 94% 30.36 in 6.2 mi ENE 6.9 mph - N/A   Partly Cloudy
2:50 AM 51.8 °F - 50.0 °F 94% 30.36 in 6.2 mi ENE 6.9 mph - N/A   Overcast
3:20 AM 51.8 °F - 48.2 °F 88% 30.36 in 6.2 mi ENE 5.8 mph - N/A   Overcast
3:50 AM 50.0 °F - 48.2 °F 94% 30.36 in 6.2 mi ENE 5.8 mph - N/A   Overcast
4:20 AM 50.0 °F - 48.2 °F 94% 30.33 in 6.2 mi East 6.9 mph - N/A   Overcast
4:50 AM 50.0 °F - 48.2 °F 94% 30.33 in 6.2 mi ENE 9.2 mph - N/A   Overcast
5:20 AM 50.0 °F - 48.2 °F 94% 30.33 in 6.2 mi ENE 9.2 mph - N/A   Overcast
5:50 AM 50.0 °F - 48.2 °F 94% 30.33 in 6.2 mi ENE 8.1 mph - N/A   Mostly Cloudy
6:20 AM 50.0 °F - 48.2 °F 94% 30.33 in 5.6 mi NE 9.2 mph - N/A   Mostly Cloudy
6:50 AM 50.0 °F - 48.2 °F 94% 30.33 in 5.0 mi NE 8.1 mph - N/A Rain Light Rain
7:20 AM 50.0 °F - 48.2 °F 94% 30.33 in 5.0 mi NE 9.2 mph - N/A   Mostly Cloudy
7:50 AM 50.0 °F - 48.2 °F 94% 30.33 in 5.6 mi ENE 6.9 mph - N/A   Light Drizzle
8:20 AM 50.0 °F - 48.2 °F 94% 30.33 in 6.2 mi NE 6.9 mph - N/A   Mostly Cloudy
8:50 AM 50.0 °F - 48.2 °F 94% 30.33 in 6.2 mi ENE 6.9 mph - N/A   Light Drizzle
9:20 AM 50.0 °F - 48.2 °F 94% 30.33 in 6.2 mi East 5.8 mph - N/A   Overcast
9:50 AM 50.0 °F - 48.2 °F 94% 30.33 in 6.2 mi NE 5.8 mph - N/A   Overcast
10:20 AM 50.0 °F - 48.2 °F 94% 30.33 in 6.2 mi ENE 5.8 mph - N/A   Mostly Cloudy
10:50 AM 51.8 °F - 46.4 °F 82% 30.33 in 6.2 mi ENE 6.9 mph - N/A   Mostly Cloudy
11:20 AM 51.8 °F - 46.4 °F 82% 30.33 in 6.2 mi ENE 9.2 mph - N/A   Mostly Cloudy
11:50 AM 51.8 °F - 46.4 °F 82% 30.33 in 6.2 mi ENE 10.4 mph - N/A   Mostly Cloudy
12:20 PM 51.8 °F - 44.6 °F 76% 30.33 in 6.2 mi ENE 9.2 mph - N/A   Mostly Cloudy
12:50 PM 51.8 °F - 44.6 °F 76% 30.33 in 6.2 mi ENE 10.4 mph - N/A   Mostly Cloudy
1:20 PM 51.8 °F - 44.6 °F 76% 30.30 in 6.2 mi ENE 9.2 mph - N/A   Mostly Cloudy
1:50 PM 51.8 °F - 44.6 °F 76% 30.30 in 6.2 mi NE 10.4 mph - N/A   Mostly Cloudy
2:20 PM 53.6 °F - 44.6 °F 72% 30.30 in 6.2 mi ENE 9.2 mph - N/A   Mostly Cloudy
2:50 PM 53.6 °F - 44.6 °F 72% 30.30 in 6.2 mi ENE 11.5 mph - N/A   Scattered Clouds
3:20 PM 53.6 °F - 44.6 °F 72% 30.27 in 6.2 mi ENE 11.5 mph - N/A   Mostly Cloudy
3:50 PM 51.8 °F - 42.8 °F 71% 30.27 in 6.2 mi ENE 11.5 mph - N/A   Scattered Clouds
4:20 PM 50.0 °F - 42.8 °F 76% 30.27 in 6.2 mi East 11.5 mph - N/A   Partly Cloudy
4:50 PM 50.0 °F - 42.8 °F 76% 30.27 in 6.2 mi East 10.4 mph - N/A   Partly Cloudy
5:20 PM 50.0 °F - 42.8 °F 76% 30.27 in - East 9.2 mph - N/A   Clear
5:50 PM 48.2 °F - 42.8 °F 82% 30.27 in - East 8.1 mph - N/A   Clear
6:20 PM 46.4 °F 43.5 °F 41.0 °F 81% 30.27 in - ENE 5.8 mph - N/A   Clear
6:50 PM 44.6 °F 42.2 °F 41.0 °F 87% 30.27 in - NNE 4.6 mph - N/A   Clear
7:20 PM 42.8 °F 41.1 °F 41.0 °F 93% 30.27 in - NNE 3.5 mph - N/A   Clear
7:50 PM 41.0 °F 39.0 °F 39.2 °F 93% 30.27 in - East 3.5 mph - N/A   Clear
8:20 PM 42.8 °F - 41.0 °F 93% 30.27 in 5.6 mi Calm Calm - N/A   Unknown
8:50 PM 42.8 °F - 41.0 °F 93% 30.27 in 5.0 mi Calm Calm - N/A   Unknown
9:20 PM 41.0 °F - 41.0 °F 100% 30.27 in 5.0 mi Calm Calm - N/A   Unknown
9:50 PM 39.2 °F - 37.4 °F 93% 30.27 in 4.3 mi Variable 2.3 mph - N/A   Mostly Cloudy
10:20 PM 39.2 °F - 39.2 °F 100% 30.27 in 3.7 mi Variable 2.3 mph - N/A   Mostly Cloudy
10:50 PM 39.2 °F 37.0 °F 37.4 °F 93% 30.24 in 3.7 mi WSW 3.5 mph - N/A   Mostly Cloudy
11:20 PM 39.2 °F 37.0 °F 39.2 °F 100% 30.24 in 2.5 mi WNW 3.5 mph - N/A   Mostly Cloudy
11:50 PM 39.2 °F - 37.4 °F 93% 30.27 in - West 2.3 mph - N/A   Mostly Cloudy